Regional Weather Roundup
Issued by NWS Boston, MA

Current Version | Previous Version | Text Only | Print | Product List | Glossary Off
Versions: 1 2 3 4 5 6 7 8 9 10 11 12 13 14 15 16 17 18 19 20 21 22 23 24 25 26 27 28 29 30 31 32 33 34 35 36 37 38 39 40 41 42 43 44 45 46 47 48 49 50
000 ASUS41 KBOX 190810 RWRBOX REGIONAL WEATHER ROUNDUP NATIONAL WEATHER SERVICE BOSTON/NORTON MA 400 AM EDT FRI OCT 19 2018 NOTE: "FAIR" INDICATES FEW OR NO CLOUDS BELOW 12,000 FEET WITH NO SIGNIFICANT WEATHER AND/OR OBSTRUCTIONS TO VISIBILITY. MAZALL-190900- EASTERN MASSACHUSETTS CITY SKY/WX TMP DP RH WIND PRES REMARKS BOSTON FAIR 40 26 57 W9 30.25S BEVERLY FAIR 32 23 69 CALM 30.23F LAWRENCE FAIR 35 25 66 CALM 30.26S BEDFORD FAIR 30 25 81 CALM 30.24S BLUE HILL N/A 32 25 75 W13 30.22S WCI 22 NORWOOD FAIR 30 26 85 CALM 30.26S MARSHFIELD FAIR 32 27 80 W5 30.26R WCI 27 PLYMOUTH FAIR 33 25 72 CALM 30.26F TAUNTON FAIR 28 26 92 CALM 30.27S NEW BEDFORD FAIR 32 28 85 CALM 30.26F $$ MAZALL-190900- CAPE COD AND THE ISLANDS CITY SKY/WX TMP DP RH WIND PRES REMARKS FALMOUTH FAIR 34 27 75 W3 30.27F HYANNIS FAIR 37 26 64 W6 30.25S CHATHAM FAIR 33 26 75 CALM 30.25F PROVINCETOWN FAIR 43 31 62 NW15G24 30.25S NANTUCKET FAIR 42 27 55 NW12 30.26S MARTHAS VNYRD FAIR 39 29 67 W5 30.27F $$ MAZALL-190900- CENTRAL AND WESTERN MASSACHUSETTS CITY SKY/WX TMP DP RH WIND PRES REMARKS WORCESTER FAIR 33 25 72 W13 30.22R WCI 24 FITCHBURG FAIR 30 26 85 CALM 30.24S ORANGE FAIR 28 25 88 CALM 30.25S SPRINGFIELD FAIR 29 25 84 CALM 30.26R WESTFIELD FAIR 32 27 81 S6 30.26R WCI 26 NORTH ADAMS CLOUDY 37 31 78 NW6 30.23F PITTSFIELD FAIR 36 26 67 SW6 30.22S WCI 31 $$ RIZALL-190900- RHODE ISLAND CITY SKY/WX TMP DP RH WIND PRES REMARKS PROVIDENCE FAIR 33 26 75 SW3 30.29R NEWPORT FAIR 39 28 64 W6 30.27F SMITHFIELD FAIR 30 27 88 SW3 30.26S WESTERLY FAIR 36 28 73 W3 30.29S $$ CTZALL-190900- CONNECTICUT CITY SKY/WX TMP DP RH WIND PRES REMARKS BRADLEY INTL FAIR 35 25 66 S10 30.27F WCI 27 HARTFORD FAIR 33 28 81 CALM 30.29S BRIDGEPORT FAIR 37 29 72 W3 30.30F DANBURY FAIR 34 28 79 W8 30.29F WCI 27 GROTON FAIR 33 29 85 NE5 30.29S WCI 29 NEW HAVEN FAIR 42 29 59 W6 30.30F CHESTER FAIR 34 25 69 CALM 30.28R MERIDEN FAIR 28 26 92 CALM 30.30S WILLIMANTIC FAIR 32 28 85 S5 30.28S WCI 27 OXFORD FAIR 30 28 92 SW3 30.27F $$ MEZ002-015-021-024-NHZ003-005-008-011-012-014-VTZ005-008-190900- NORTHERN NEW ENGLAND CITY SKY/WX TMP DP RH WIND PRES REMARKS PORTLAND ME CLOUDY 34 22 61 SW3 30.20F BANGOR ME CLOUDY 33 21 61 S3 30.16S CONCORD NH FAIR 25 22 88 CALM 30.22F MANCHESTER NH FAIR 30 24 78 SE3 30.21F NASHUA NH FAIR 27 26 96 CALM 30.24F PORTSMOUTH NH PTCLDY 28 22 77 S3 30.21 JAFFREY NH FAIR 32 27 81 CALM 30.21S KEENE NH FAIR 25 23 92 CALM 30.24S BURLINGTON VT CLOUDY 39 27 62 S14 30.14F WCI 31 MT. WASHINGTON FOG 14 14 100 W66G75 N/A VSB 0 WCI -14 $$ NYZ052-076-190900- EASTERN NEW YORK CITY SKY/WX TMP DP RH WIND PRES REMARKS ALBANY FAIR 30 25 81 CALM 30.26F NEW YORK CITY FAIR 47 26 44 W9 30.31F $$ ANZALL-190900- MARINE OBSERVATIONS STATION/POSITION TIME TEMP WIND PRES VSBY WAVE AIR SEA DIR/SP/G HT/PER (UTC) (F) (DEG/KT/KT) (MB) (MI) (FT/S) BOSTON BUOY 0750 43 57 300/ 16/ 17 1023.7F 2/ 4 BUZZARDS BAY 0700 43 310/ 14/ 15 1025.7F NANTUCKET SOUND 0750 44 60 310/ 16/ 19 1024.8S 2/ 3 MASS BAY-STELLWA 0704 42 55 300/ 16/ 17 1023.3F 1 7/8 2/ 3 ISLE OF SHOALS 0700 40 270/ 16/ 18 1023.1F S OF BLOCK IS 0743 63 N/A 5/ 5 $$ ......................KEY......................... SKY/WX - SKY CONDITION/PRESENT WEATHER TMP - TEMPERATURE IN FAHRENHEIT DWPT - DEWPOINT IN FAHRENHEIT RH - RELATIVE HUMIDITY IN PERCENT WIND - DIRECTION AND SPEED IN MPH PRES - MEAN SEA LEVEL PRESSURE IN INCHES OF HG WCI - WIND CHILL INDEX VSB - VISIBILITY IN MILES HX - HEAT INDEX TC - TEMPERATURE IN CELSIUS VRB - VARIABLE WIND DIRECTION N/A - NOT AVAILABLE

USA.gov is the U.S. government's official web portal to all federal, state and local government web resources and services.